SCP
0 0 0 0 0 0 0 0 0 0 0 0 0 0 0 0 0 -0 -0 0 -0 -0 -0 -0 -0 -0 -0 -0 -0 -0 -0 -0 -0 0 0 0 0 0 0 0 0 0 0 0 0 0 0 0 0
0 0 0 0 0 -0 0 0 0 0 0 0 0 0 0 0 0 0 0 -0 -0 -0 -0 -0 -0 -0 -0 -0 -0 -0 -0 0 0 0 0 0 0 0 0 0 0 0 0 0 0 0 0 0 0
0 0 0 0 0 0 0 0 0 0 0 0 0 0 0 0 0 -0 -0 -0 -0 -0 -0 0 -0 -0 -0 -0 0 0 0 0 0 0 0 -0 0 0 0 0 0 0 0 0 0 0 0 0 0
-0 0 0 -0 -0 0 0 0 0 0 0 0 -0 -0 0 -0 -0 -0 -0 -0 -0 -0 0 -0 -0 -0 -0 0 0 0 -0 -0 -0 -0 -0 -0 -0 0 0 -0 0 0 0 0 0 0 0 0 0
-0 0 -0 -0 0 -0 0 0 0 0 0 -0 -0 -0 -0 0 -0 0 -0 -0 -0 -0 -0 0 0 0 0 0 -0 -0 -0 -0 -0 -0 -0 -0 -0 -0 -0 -0 -0 -0 0 0 0 0 0 0 0
0 0 -0 -0 -0 -0 0 0 0 0 0 0 0 0 0 0 0 0 -0 -0 -0 -0 -0 0 0 0 -0 -0 -0 -0 -0 -0 -0 -0 -0 -0 -0 -0 -0 -0 -0 0 0 0 0 0 0 0 0
0 0 -0 -0 -0 -0 0 0 0 0 0 0 0 0 0 0 0 0 0 -0 -0 -0 -0 0 0 0 -0 -0 -0 -0 -0 -0 -0 -0 -0 -0 0 0 0 0 0 0 0 0 0 0 0 0 0
0 -0 -0 -0 -0 -0 0 0 0 0 0 0 0 0 0 1 0 0 0 0 -0 -0 -0 -0 -0 0 0 0 -0 -0 -0 -0 -0 0 0 0 0 0 0 0 0 0 0 0 0 0 0 0 1
0 -0 -0 -0 -0 -0 0 0 0 0 0 0 0 0 0 0 0 0 0 0 0 -0 0 -0 0 0 0 0 0 -0 -0 -0 0 0 0 0 0 0 0 0 0 0 1 0 0 0 0 0 0
0 0 -0 0 0 -0 0 0 0 0 0 0 0 0 0 0 0 0 0 0 0 0 0 0 -0 -0 0 0 0 0 0 0 0 0 0 0 0 0 0 0 0 0 0 0 0 0 0 0 0
-0 0 0 0 0 0 0 0 0 0 0 0 0 0 -0 0 0 0 0 0 0 0 0 0 0 0 0 0 0 0 0 0 0 0 0 0 0 0 0 0 0 0 0 0 0 0 0 0 0
0 -0 0 -0 0 0 -0 0 0 0 0 0 0 -0 -0 -0 0 0 0 0 0 0 0 0 0 0 0 0 0 0 0 1 1 0 0 0 0 0 0 0 0 0 0 0 0 0 0 0 0
0 0 -0 -0 -0 0 -0 -0 0 0 0 0 -0 -0 -0 0 0 0 0 0 0 0 0 0 0 0 0 0 0 0 0 0 0 0 0 0 0 0 0 0 0 0 0 0 0 0 0 0 0
-0 0 0 -0 -0 -0 -0 0 0 0 0 0 -0 -0 -0 0 0 0 0 0 0 1 0 0 0 0 0 0 0 0 0 0 0 0 0 0 0 0 0 0 0 0 0 0 0 0 0 0 0
-0 0 0 -0 0 -0 -0 0 -0 0 0 0 -0 -0 0 0 0 0 0 0 0 0 0 0 0 0 0 0 0 0 0 0 0 0 0 0 0 0 0 0 0 0 0 0 0 0 0 0 0
-0 -0 0 0 0 0 0 -0 -0 0 0 0 -0 0 0 0 0 0 0 0 0 0 0 0 0 0 0 0 0 0 0 0 0 0 0 0 0 0 0 0 0 0 0 0 0 0 0 0 0
0 0 -0 -0 0 0 0 0 0 -0 0 0 0 0 0 0 0 0 0 0 0 0 0 0 0 0 0 0 0 0 0 0 0 0 0 0 0 0 0 0 0 0 0 0 0 0 0 0 0
0 0 0 0 0 0 0 0 0 0 0 0 0 0 0 0 0 0 0 0 0 0 0 0 0 0 0 0 0 0 0 0 0 0 0 0 0 0 0 0 0 0 0 0 0 0 0 0 0
0 0 0 0 0 0 0 0 0 0 0 0 0 0 0 0 0 0 0 0 0 0 0 0 0 0 0 0 0 0 0 0 0 0 0 0 0 0 0 0 0 0 0 0 0 0 0 0 0
0 0 0 0 0 0 0 0 0 0 0 0 0 0 -0 -0 0 0 0 0 0 0 0 0 0 0 0 0 0 0 0 0 0 0 0 0 0 0 0 0 0 0 0 0 0 0 0 0 0
0 0 0 0 0 0 0 0 0 0 0 0 -0 -0 -0 -0 -0 -0 0 0 0 0 0 0 0 0 0 0 0 0 0 0 0 0 0 0 0 0 0 0 0 0 0 0 0 0 0 0 0
0 0 0 0 0 0 0 0 0 0 0 0 0 -0 -0 -0 -0 -0 -0 -0 -0 -0 0 0 0 0 0 0 0 0 0 0 0 0 0 0 0 0 0 0 0 0 0 0 0 0 0 0 0
0 0 0 0 0 0 0 0 0 0 0 0 0 -0 -0 -0 -0 -0 -0 -0 -0 0 0 0 0 0 0 0 0 0 0 0 0 0 0 0 0 0 0 0 0 0 0 0 0 0 0 0 0
0 0 0 0 0 0 0 0 0 0 0 0 0 -0 -0 -0 -0 -0 -0 -0 0 0 0 0 0 0 0 0 0 0 0 0 0 0 0 0 0 0 0 0 0 0 0 0 0 0 0 0 0
0 0 0 0 0 0 0 0 0 -0 0 0 0 0 -0 0 0 0 -0 0 0 0 0 0 0 0 0 0 0 0 0 0 0 0 0 0 0 0 0 0 0 0 0 0 0 0 0 0 0
0 -0 0 0 0 0 0 0 0 0 0 0 0 0 0 0 0 0 0 0 0 0 0 0 0 0 0 0 0 0 0 0 0 0 0 0 0 0 0 0 0 0 0 0 0 0 0 0 0
0 0 0 0 0 0 0 0 0 0 0 0 0 0 0 0 0 0 0 0 0 0 0 0 0 0 0 0 0 0 0 0 0 0 0 0 0 0 0 0 0 0 0 0 0 0 0 0 0
0 0 0 0 0 0 0 0 0 0 0 0 0 0 0 0 0 0 0 0 0 0 0 0 0 0 0 0 0 0 0 0 0 0 0 0 0 0 0 0 0 0 0 0 0 0 0 0 0
0 0 0 0 0 0 0 0 0 0 0 0 0 0 0 0 0 0 0 0 0 0 0 0 0 0 0 0 0 0 0 0 0 0 0 0 0 0 0 0 0 0 0 0 0 0 0 0 0
0 0 0 0 0 0 0 0 0 0 0 0 0 0 0 0 0 0 0 0 0 0 0 0 0 0 0 0 0 0 0 0 0 0 0 0 0 0 0 0 0 0 0 0 0 0 0 0 0
Wind_Speed_500mb
21 12 17 7 3 7 8 10 4 10 6 2 13 4 7 5 3 5 22 24 27 30 29 26 23 21 18 17 16 18 18 18 17 17 17 17 17 16 17 17 17 16 16 14 12 11 11 10 9
21 11 7 3 7 8 8 2 3 4 1 13 14 10 4 4 5 17 23 26 26 26 27 26 25 21 18 16 16 16 14 13 13 15 15 14 14 14 15 16 16 14 14 14 14 12 11 11 10
15 7 1 5 4 7 5 5 7 5 13 13 7 4 5 8 11 26 20 22 26 26 26 26 24 21 17 15 14 12 11 9 10 11 11 13 15 16 16 18 18 17 16 16 18 19 18 17 15
16 7 8 5 9 3 1 13 17 19 5 5 4 7 7 2 11 13 17 22 24 25 25 24 23 20 18 15 12 10 8 7 7 9 11 14 15 18 18 19 15 18 20 23 24 24 25 26 23
14 8 7 7 5 5 3 21 32 18 9 9 5 7 9 8 18 22 22 25 24 25 25 24 22 20 17 14 11 8 7 6 7 7 9 12 15 18 21 23 23 25 28 25 24 24 27 27 26
7 2 5 4 1 4 7 25 26 11 9 10 5 14 6 17 19 20 22 23 25 23 25 24 22 20 17 15 12 10 9 6 3 6 10 13 17 21 22 24 25 27 27 28 28 30 25 26 26
4 4 4 1 3 3 10 23 22 14 12 9 16 14 9 24 21 24 23 24 26 25 26 23 22 20 18 16 14 14 11 6 8 10 11 11 13 19 22 25 26 29 30 30 29 28 29 26 26
3 6 5 5 5 6 19 28 15 19 12 5 17 7 15 37 28 24 24 24 26 26 26 24 22 19 16 13 12 12 10 8 6 9 10 10 12 19 23 27 29 31 33 27 22 25 28 29 30
8 2 3 6 13 5 24 30 10 8 17 16 19 10 22 38 40 30 31 31 32 31 28 25 23 20 18 15 12 11 10 4 1 5 6 8 12 18 21 25 31 34 37 33 32 32 29 27 33
6 5 8 6 12 8 29 37 26 14 15 26 20 20 42 41 43 40 35 32 31 29 27 26 25 22 21 18 14 13 10 7 6 6 8 10 15 22 28 31 33 35 36 32 30 31 31 30 29
4 6 5 11 18 16 39 31 25 20 17 37 38 34 51 46 44 38 32 30 26 26 23 23 25 23 21 17 15 15 13 12 12 13 14 17 23 30 36 39 42 43 42 43 42 40 35 33 33
6 15 17 9 13 21 41 30 28 40 12 27 32 38 48 46 39 36 35 32 29 26 25 24 26 24 22 20 19 20 19 16 17 18 20 24 30 36 40 42 47 51 49 47 45 44 46 44 43
8 5 7 8 17 11 30 43 27 49 32 12 32 42 51 39 30 34 36 32 26 27 26 27 27 22 21 27 25 22 21 19 18 20 25 31 35 39 46 49 49 48 49 52 53 53 53 53 51
4 5 2 4 16 18 36 21 19 37 32 20 31 48 46 38 41 35 30 27 32 31 27 24 24 27 26 19 20 21 20 18 19 25 35 39 40 45 50 52 55 55 54 53 52 52 53 54 53
4 1 10 19 9 9 26 9 33 29 29 33 38 41 37 36 40 35 27 21 24 26 26 23 25 21 15 18 20 20 22 19 24 32 34 36 40 48 52 57 58 55 52 51 52 51 49 48 49
6 6 3 16 7 8 16 26 34 16 29 41 37 34 34 36 36 33 26 18 18 21 28 22 18 20 20 24 24 24 21 25 29 33 32 38 43 49 57 62 58 55 53 54 55 55 45 42 40
11 9 5 6 8 12 17 13 10 9 30 29 31 32 34 32 40 35 28 17 11 15 22 24 21 27 28 26 25 25 28 35 38 30 36 38 45 53 62 60 56 54 54 55 55 52 44 44 47
5 8 10 11 12 12 6 6 21 8 18 19 23 27 32 30 30 38 32 21 14 14 17 24 26 27 29 29 31 32 38 41 34 33 36 41 48 58 64 59 56 58 60 54 50 53 45 41 42
9 10 10 6 10 8 6 8 18 11 1 5 14 21 29 28 31 42 39 38 24 22 22 28 29 30 33 31 34 39 43 37 35 34 38 47 56 65 65 61 63 67 55 55 52 51 41 33 31
10 7 4 1 11 4 4 11 16 14 4 5 11 17 25 26 37 44 50 46 37 31 27 29 30 31 34 35 36 40 44 41 34 39 48 55 64 67 64 63 64 62 54 48 45 42 38 33 29
6 3 2 7 7 15 2 4 9 9 7 4 8 19 22 27 33 41 50 53 49 42 33 29 27 27 31 36 42 45 49 40 46 54 58 65 70 67 61 61 60 57 50 41 46 41 35 36 30
2 4 7 4 3 4 9 2 2 12 7 6 2 7 13 17 23 26 30 39 44 41 38 31 28 31 35 41 43 52 45 48 56 58 65 71 69 65 62 64 62 59 54 50 54 51 44 39 40
7 13 8 6 8 5 12 7 5 6 5 5 4 9 15 22 24 22 25 28 31 34 35 34 34 31 39 44 50 44 46 55 57 64 72 71 67 63 65 65 65 62 46 46 43 42 38 34 39
11 5 7 6 1 3 11 7 3 7 6 6 9 15 23 27 22 24 25 25 25 25 26 31 38 39 40 45 37 43 51 54 63 71 67 66 63 61 58 55 40 37 39 38 36 37 36 34 47
7 7 6 2 6 6 6 7 5 11 9 13 14 20 27 13 19 19 19 20 17 15 19 28 35 39 41 33 40 45 51 61 68 63 63 62 51 48 41 41 44 45 43 43 40 39 37 37 44
8 7 7 8 8 11 5 4 5 7 11 16 19 27 23 20 19 18 15 13 14 15 22 29 32 34 31 37 44 52 59 61 58 57 58 60 47 38 40 48 53 50 46 44 46 41 41 44 49
6 5 4 9 2 6 5 5 13 9 16 20 28 31 18 17 16 16 14 16 16 18 27 32 31 29 36 43 50 54 55 54 54 55 58 48 47 40 50 56 59 50 43 38 41 37 35 37 38
2 15 1 4 7 13 4 8 11 12 23 27 34 26 15 20 19 17 16 19 18 21 27 30 33 34 38 44 48 50 49 51 53 57 55 48 43 46 51 60 46 39 35 36 36 35 34 28 25
6 4 10 5 4 8 11 12 7 18 16 21 30 15 17 17 18 20 19 19 16 19 25 28 30 35 38 42 45 46 48 52 56 58 48 43 47 48 59 49 41 36 33 32 31 30 25 25 24
4 5 3 1 1 1 4 14 4 13 23 25 27 17 15 13 14 15 13 11 16 20 25 28 34 37 40 43 45 47 51 58 62 50 38 42 45 54 53 40 37 35 29 28 26 23 22 28 22
Wind_Direction_500mb
42 93 115 60 82 61 36 30 339 120 158 98 126 115 78 82 29 58 145 133 141 158 159 153 143 142 135 122 111 99 89 82 76 68 61 53 47 43 39 35 33 30 31 32 32 29 23 16 7
36 100 113 91 63 45 58 310 26 120 299 146 116 128 99 95 129 142 137 142 145 151 155 152 146 144 136 126 113 99 91 78 63 52 43 36 34 33 34 30 26 23 21 15 11 4 357 347 341
30 67 348 60 86 53 103 187 136 102 136 155 169 71 94 96 120 140 140 145 145 149 156 153 147 142 138 132 119 113 91 71 54 47 41 37 32 27 30 25 24 21 18 11 1 352 343 333 323
13 34 53 52 64 87 257 153 149 145 138 174 149 97 66 71 113 148 154 152 146 153 155 153 149 147 146 138 128 114 98 76 66 55 45 39 38 29 20 15 7 358 355 350 345 343 345 342 333
356 33 55 83 12 295 238 153 159 164 168 160 131 98 91 108 133 132 131 148 153 156 160 160 156 156 150 146 143 137 124 95 72 60 43 36 27 27 19 11 12 6 357 356 353 354 351 347 345
25 54 101 91 98 326 152 171 168 185 173 150 150 132 109 139 156 155 156 157 160 164 169 166 163 164 161 164 164 154 136 111 73 52 59 53 51 33 23 13 10 8 357 349 345 348 352 349 348
57 33 54 342 101 203 166 179 192 192 171 174 154 151 170 162 163 163 164 166 167 169 172 173 174 177 176 180 173 160 149 137 90 63 63 57 50 37 23 13 10 4 353 342 345 347 343 345 340
132 119 156 200 197 248 165 178 214 194 168 125 166 182 188 189 165 165 165 163 166 166 171 177 180 183 182 186 179 166 170 157 92 66 58 56 32 18 5 360 355 351 351 345 347 342 335 332 333
164 176 223 204 187 204 159 184 199 163 139 173 199 236 206 181 175 176 169 167 167 168 171 177 179 181 181 181 194 193 191 190 146 40 27 15 360 351 345 342 341 337 336 339 330 337 336 323 327
200 214 229 218 206 187 171 189 180 182 154 198 216 235 190 188 185 188 185 181 175 176 178 181 181 185 186 190 196 214 222 243 273 308 318 321 327 328 326 321 319 319 321 323 314 318 323 314 313
172 248 211 243 228 177 167 187 187 195 202 206 209 203 192 199 197 199 199 200 189 190 193 193 192 197 199 206 222 230 243 252 257 281 295 307 315 321 317 309 310 312 307 305 303 301 303 299 300
247 259 234 273 181 175 174 174 206 206 215 202 212 206 193 200 200 203 208 213 212 207 210 219 214 217 220 232 248 249 250 250 259 279 297 308 314 316 315 311 310 309 299 292 288 286 287 291 292
216 291 254 281 144 183 177 188 196 222 221 279 210 198 200 204 199 211 220 222 232 234 233 234 233 256 253 253 253 248 244 254 273 291 306 313 314 313 313 310 309 305 297 290 286 282 278 282 286
233 246 111 36 142 152 179 187 202 237 223 228 204 199 201 203 207 218 233 241 244 246 250 254 251 255 263 240 237 237 246 265 290 311 314 310 304 303 307 306 304 301 296 291 289 286 282 278 273
310 143 132 34 141 139 163 191 225 236 211 211 205 199 202 205 213 219 233 256 268 246 246 260 272 265 239 232 234 244 265 287 310 312 305 298 298 308 315 320 317 311 306 299 294 291 288 283 279
63 55 106 37 130 124 211 235 243 227 198 214 203 199 203 210 216 223 227 265 270 249 250 255 260 246 233 238 247 259 276 298 303 311 302 302 308 318 322 324 321 316 313 308 301 293 285 280 276
41 92 87 87 34 147 210 259 27 278 216 222 203 203 207 211 219 227 230 251 283 247 250 258 244 243 247 253 261 271 290 294 300 308 305 310 319 322 327 326 323 320 317 313 306 298 293 283 275
100 96 79 72 28 54 114 303 337 1 222 219 205 208 213 214 216 226 224 245 300 313 283 241 239 242 245 259 265 274 281 302 311 307 311 317 324 329 329 326 323 322 320 316 309 305 297 290 286
120 93 75 80 25 104 55 359 347 333 212 213 212 219 229 226 224 230 235 248 275 298 280 252 250 246 251 261 267 278 294 302 307 307 316 325 328 327 327 325 323 324 321 318 315 311 304 302 294
88 77 44 178 23 119 160 51 14 10 300 256 236 239 240 240 242 244 243 250 267 287 288 273 254 248 257 266 274 279 295 307 303 316 321 323 323 322 321 318 316 318 319 316 319 317 299 293 285
71 98 232 311 68 74 296 129 15 10 356 290 257 256 253 251 255 250 249 255 260 275 287 288 262 265 270 274 281 292 306 305 309 312 316 320 319 318 315 310 312 311 313 308 315 316 298 290 281
28 341 288 311 241 341 339 257 23 351 17 18 2 239 242 237 244 251 260 259 260 274 287 299 290 282 279 287 287 297 301 305 309 313 317 316 316 315 310 310 309 304 306 301 304 304 293 285 277
53 60 56 57 110 169 24 272 77 340 162 159 204 237 227 218 241 260 267 273 271 275 287 294 293 284 283 289 291 297 301 306 310 315 315 314 314 308 308 309 305 306 306 304 308 304 290 282 276
126 99 69 85 119 39 359 304 140 190 205 196 228 238 229 235 254 257 268 270 274 286 296 291 283 283 292 293 294 299 305 311 313 313 314 315 312 311 312 317 324 325 320 318 320 313 294 283 273
62 25 360 46 26 358 360 269 352 242 261 246 244 234 236 261 254 257 264 267 276 280 285 289 290 287 291 296 300 307 310 310 312 315 314 312 314 316 317 328 318 310 304 303 304 304 296 284 281
56 33 31 356 333 336 312 345 29 272 264 251 255 246 253 249 250 254 255 261 265 268 282 290 291 293 292 304 309 308 307 311 314 315 314 314 314 317 325 314 316 311 304 303 304 306 297 286 283
135 74 70 109 111 276 352 246 256 246 249 248 246 242 248 253 245 252 252 257 261 273 289 301 301 297 306 309 307 308 311 315 317 314 315 314 315 314 314 315 316 311 310 308 314 310 302 297 289
298 130 298 52 315 324 296 278 301 270 243 235 242 243 249 254 245 254 262 267 268 285 304 307 305 305 303 301 305 310 315 319 317 318 319 314 314 312 314 319 318 320 317 320 318 314 308 306 299
146 145 66 94 340 305 305 306 253 280 301 285 267 248 245 251 246 255 265 266 285 299 301 305 298 291 297 302 308 314 320 322 322 322 318 317 317 314 318 317 320 322 322 326 320 320 320 311 307
75 103 120 30 275 169 314 283 14 302 297 283 279 234 234 241 247 260 269 266 281 287 287 285 285 291 297 307 315 319 323 324 324 322 321 323 317 318 319 318 319 320 322 323 324 323 323 316 315
Wind_Speed_850mb
21 12 17 7 3 7 8 10 4 10 6 2 13 4 7 5 3 5 22 24 27 30 29 26 23 21 18 17 16 18 18 18 17 17 17 17 17 16 17 17 17 16 16 14 12 11 11 10 9
21 11 7 3 7 8 8 2 3 4 1 13 14 10 4 4 5 17 23 26 26 26 27 26 25 21 18 16 16 16 14 13 13 15 15 14 14 14 15 16 16 14 14 14 14 12 11 11 10
15 7 1 5 4 7 5 5 7 5 13 13 7 4 5 8 11 26 20 22 26 26 26 26 24 21 17 15 14 12 11 9 10 11 11 13 15 16 16 18 18 17 16 16 18 19 18 17 15
16 7 8 5 9 3 1 13 17 19 5 5 4 7 7 2 11 13 17 22 24 25 25 24 23 20 18 15 12 10 8 7 7 9 11 14 15 18 18 19 15 18 20 23 24 24 25 26 23
14 8 7 7 5 5 3 21 32 18 9 9 5 7 9 8 18 22 22 25 24 25 25 24 22 20 17 14 11 8 7 6 7 7 9 12 15 18 21 23 23 25 28 25 24 24 27 27 26
7 2 5 4 1 4 7 25 26 11 9 10 5 14 6 17 19 20 22 23 25 23 25 24 22 20 17 15 12 10 9 6 3 6 10 13 17 21 22 24 25 27 27 28 28 30 25 26 26
4 4 4 1 3 3 10 23 22 14 12 9 16 14 9 24 21 24 23 24 26 25 26 23 22 20 18 16 14 14 11 6 8 10 11 11 13 19 22 25 26 29 30 30 29 28 29 26 26
3 6 5 5 5 6 19 28 15 19 12 5 17 7 15 37 28 24 24 24 26 26 26 24 22 19 16 13 12 12 10 8 6 9 10 10 12 19 23 27 29 31 33 27 22 25 28 29 30
8 2 3 6 13 5 24 30 10 8 17 16 19 10 22 38 40 30 31 31 32 31 28 25 23 20 18 15 12 11 10 4 1 5 6 8 12 18 21 25 31 34 37 33 32 32 29 27 33
6 5 8 6 12 8 29 37 26 14 15 26 20 20 42 41 43 40 35 32 31 29 27 26 25 22 21 18 14 13 10 7 6 6 8 10 15 22 28 31 33 35 36 32 30 31 31 30 29
4 6 5 11 18 16 39 31 25 20 17 37 38 34 51 46 44 38 32 30 26 26 23 23 25 23 21 17 15 15 13 12 12 13 14 17 23 30 36 39 42 43 42 43 42 40 35 33 33
6 15 17 9 13 21 41 30 28 40 12 27 32 38 48 46 39 36 35 32 29 26 25 24 26 24 22 20 19 20 19 16 17 18 20 24 30 36 40 42 47 51 49 47 45 44 46 44 43
8 5 7 8 17 11 30 43 27 49 32 12 32 42 51 39 30 34 36 32 26 27 26 27 27 22 21 27 25 22 21 19 18 20 25 31 35 39 46 49 49 48 49 52 53 53 53 53 51
4 5 2 4 16 18 36 21 19 37 32 20 31 48 46 38 41 35 30 27 32 31 27 24 24 27 26 19 20 21 20 18 19 25 35 39 40 45 50 52 55 55 54 53 52 52 53 54 53
4 1 10 19 9 9 26 9 33 29 29 33 38 41 37 36 40 35 27 21 24 26 26 23 25 21 15 18 20 20 22 19 24 32 34 36 40 48 52 57 58 55 52 51 52 51 49 48 49
6 6 3 16 7 8 16 26 34 16 29 41 37 34 34 36 36 33 26 18 18 21 28 22 18 20 20 24 24 24 21 25 29 33 32 38 43 49 57 62 58 55 53 54 55 55 45 42 40
11 9 5 6 8 12 17 13 10 9 30 29 31 32 34 32 40 35 28 17 11 15 22 24 21 27 28 26 25 25 28 35 38 30 36 38 45 53 62 60 56 54 54 55 55 52 44 44 47
5 8 10 11 12 12 6 6 21 8 18 19 23 27 32 30 30 38 32 21 14 14 17 24 26 27 29 29 31 32 38 41 34 33 36 41 48 58 64 59 56 58 60 54 50 53 45 41 42
9 10 10 6 10 8 6 8 18 11 1 5 14 21 29 28 31 42 39 38 24 22 22 28 29 30 33 31 34 39 43 37 35 34 38 47 56 65 65 61 63 67 55 55 52 51 41 33 31
10 7 4 1 11 4 4 11 16 14 4 5 11 17 25 26 37 44 50 46 37 31 27 29 30 31 34 35 36 40 44 41 34 39 48 55 64 67 64 63 64 62 54 48 45 42 38 33 29
6 3 2 7 7 15 2 4 9 9 7 4 8 19 22 27 33 41 50 53 49 42 33 29 27 27 31 36 42 45 49 40 46 54 58 65 70 67 61 61 60 57 50 41 46 41 35 36 30
2 4 7 4 3 4 9 2 2 12 7 6 2 7 13 17 23 26 30 39 44 41 38 31 28 31 35 41 43 52 45 48 56 58 65 71 69 65 62 64 62 59 54 50 54 51 44 39 40
7 13 8 6 8 5 12 7 5 6 5 5 4 9 15 22 24 22 25 28 31 34 35 34 34 31 39 44 50 44 46 55 57 64 72 71 67 63 65 65 65 62 46 46 43 42 38 34 39
11 5 7 6 1 3 11 7 3 7 6 6 9 15 23 27 22 24 25 25 25 25 26 31 38 39 40 45 37 43 51 54 63 71 67 66 63 61 58 55 40 37 39 38 36 37 36 34 47
7 7 6 2 6 6 6 7 5 11 9 13 14 20 27 13 19 19 19 20 17 15 19 28 35 39 41 33 40 45 51 61 68 63 63 62 51 48 41 41 44 45 43 43 40 39 37 37 44
8 7 7 8 8 11 5 4 5 7 11 16 19 27 23 20 19 18 15 13 14 15 22 29 32 34 31 37 44 52 59 61 58 57 58 60 47 38 40 48 53 50 46 44 46 41 41 44 49
6 5 4 9 2 6 5 5 13 9 16 20 28 31 18 17 16 16 14 16 16 18 27 32 31 29 36 43 50 54 55 54 54 55 58 48 47 40 50 56 59 50 43 38 41 37 35 37 38
2 15 1 4 7 13 4 8 11 12 23 27 34 26 15 20 19 17 16 19 18 21 27 30 33 34 38 44 48 50 49 51 53 57 55 48 43 46 51 60 46 39 35 36 36 35 34 28 25
6 4 10 5 4 8 11 12 7 18 16 21 30 15 17 17 18 20 19 19 16 19 25 28 30 35 38 42 45 46 48 52 56 58 48 43 47 48 59 49 41 36 33 32 31 30 25 25 24
4 5 3 1 1 1 4 14 4 13 23 25 27 17 15 13 14 15 13 11 16 20 25 28 34 37 40 43 45 47 51 58 62 50 38 42 45 54 53 40 37 35 29 28 26 23 22 28 22
Wind_Direction_850mb
42 93 115 60 82 61 36 30 339 120 158 98 126 115 78 82 29 58 145 133 141 158 159 153 143 142 135 122 111 99 89 82 76 68 61 53 47 43 39 35 33 30 31 32 32 29 23 16 7
36 100 113 91 63 45 58 310 26 120 299 146 116 128 99 95 129 142 137 142 145 151 155 152 146 144 136 126 113 99 91 78 63 52 43 36 34 33 34 30 26 23 21 15 11 4 357 347 341
30 67 348 60 86 53 103 187 136 102 136 155 169 71 94 96 120 140 140 145 145 149 156 153 147 142 138 132 119 113 91 71 54 47 41 37 32 27 30 25 24 21 18 11 1 352 343 333 323
13 34 53 52 64 87 257 153 149 145 138 174 149 97 66 71 113 148 154 152 146 153 155 153 149 147 146 138 128 114 98 76 66 55 45 39 38 29 20 15 7 358 355 350 345 343 345 342 333
356 33 55 83 12 295 238 153 159 164 168 160 131 98 91 108 133 132 131 148 153 156 160 160 156 156 150 146 143 137 124 95 72 60 43 36 27 27 19 11 12 6 357 356 353 354 351 347 345
25 54 101 91 98 326 152 171 168 185 173 150 150 132 109 139 156 155 156 157 160 164 169 166 163 164 161 164 164 154 136 111 73 52 59 53 51 33 23 13 10 8 357 349 345 348 352 349 348
57 33 54 342 101 203 166 179 192 192 171 174 154 151 170 162 163 163 164 166 167 169 172 173 174 177 176 180 173 160 149 137 90 63 63 57 50 37 23 13 10 4 353 342 345 347 343 345 340
132 119 156 200 197 248 165 178 214 194 168 125 166 182 188 189 165 165 165 163 166 166 171 177 180 183 182 186 179 166 170 157 92 66 58 56 32 18 5 360 355 351 351 345 347 342 335 332 333
164 176 223 204 187 204 159 184 199 163 139 173 199 236 206 181 175 176 169 167 167 168 171 177 179 181 181 181 194 193 191 190 146 40 27 15 360 351 345 342 341 337 336 339 330 337 336 323 327
200 214 229 218 206 187 171 189 180 182 154 198 216 235 190 188 185 188 185 181 175 176 178 181 181 185 186 190 196 214 222 243 273 308 318 321 327 328 326 321 319 319 321 323 314 318 323 314 313
172 248 211 243 228 177 167 187 187 195 202 206 209 203 192 199 197 199 199 200 189 190 193 193 192 197 199 206 222 230 243 252 257 281 295 307 315 321 317 309 310 312 307 305 303 301 303 299 300
247 259 234 273 181 175 174 174 206 206 215 202 212 206 193 200 200 203 208 213 212 207 210 219 214 217 220 232 248 249 250 250 259 279 297 308 314 316 315 311 310 309 299 292 288 286 287 291 292
216 291 254 281 144 183 177 188 196 222 221 279 210 198 200 204 199 211 220 222 232 234 233 234 233 256 253 253 253 248 244 254 273 291 306 313 314 313 313 310 309 305 297 290 286 282 278 282 286
233 246 111 36 142 152 179 187 202 237 223 228 204 199 201 203 207 218 233 241 244 246 250 254 251 255 263 240 237 237 246 265 290 311 314 310 304 303 307 306 304 301 296 291 289 286 282 278 273
310 143 132 34 141 139 163 191 225 236 211 211 205 199 202 205 213 219 233 256 268 246 246 260 272 265 239 232 234 244 265 287 310 312 305 298 298 308 315 320 317 311 306 299 294 291 288 283 279
63 55 106 37 130 124 211 235 243 227 198 214 203 199 203 210 216 223 227 265 270 249 250 255 260 246 233 238 247 259 276 298 303 311 302 302 308 318 322 324 321 316 313 308 301 293 285 280 276
41 92 87 87 34 147 210 259 27 278 216 222 203 203 207 211 219 227 230 251 283 247 250 258 244 243 247 253 261 271 290 294 300 308 305 310 319 322 327 326 323 320 317 313 306 298 293 283 275
100 96 79 72 28 54 114 303 337 1 222 219 205 208 213 214 216 226 224 245 300 313 283 241 239 242 245 259 265 274 281 302 311 307 311 317 324 329 329 326 323 322 320 316 309 305 297 290 286
120 93 75 80 25 104 55 359 347 333 212 213 212 219 229 226 224 230 235 248 275 298 280 252 250 246 251 261 267 278 294 302 307 307 316 325 328 327 327 325 323 324 321 318 315 311 304 302 294
88 77 44 178 23 119 160 51 14 10 300 256 236 239 240 240 242 244 243 250 267 287 288 273 254 248 257 266 274 279 295 307 303 316 321 323 323 322 321 318 316 318 319 316 319 317 299 293 285
71 98 232 311 68 74 296 129 15 10 356 290 257 256 253 251 255 250 249 255 260 275 287 288 262 265 270 274 281 292 306 305 309 312 316 320 319 318 315 310 312 311 313 308 315 316 298 290 281
28 341 288 311 241 341 339 257 23 351 17 18 2 239 242 237 244 251 260 259 260 274 287 299 290 282 279 287 287 297 301 305 309 313 317 316 316 315 310 310 309 304 306 301 304 304 293 285 277
53 60 56 57 110 169 24 272 77 340 162 159 204 237 227 218 241 260 267 273 271 275 287 294 293 284 283 289 291 297 301 306 310 315 315 314 314 308 308 309 305 306 306 304 308 304 290 282 276
126 99 69 85 119 39 359 304 140 190 205 196 228 238 229 235 254 257 268 270 274 286 296 291 283 283 292 293 294 299 305 311 313 313 314 315 312 311 312 317 324 325 320 318 320 313 294 283 273
62 25 360 46 26 358 360 269 352 242 261 246 244 234 236 261 254 257 264 267 276 280 285 289 290 287 291 296 300 307 310 310 312 315 314 312 314 316 317 328 318 310 304 303 304 304 296 284 281
56 33 31 356 333 336 312 345 29 272 264 251 255 246 253 249 250 254 255 261 265 268 282 290 291 293 292 304 309 308 307 311 314 315 314 314 314 317 325 314 316 311 304 303 304 306 297 286 283
135 74 70 109 111 276 352 246 256 246 249 248 246 242 248 253 245 252 252 257 261 273 289 301 301 297 306 309 307 308 311 315 317 314 315 314 315 314 314 315 316 311 310 308 314 310 302 297 289
298 130 298 52 315 324 296 278 301 270 243 235 242 243 249 254 245 254 262 267 268 285 304 307 305 305 303 301 305 310 315 319 317 318 319 314 314 312 314 319 318 320 317 320 318 314 308 306 299
146 145 66 94 340 305 305 306 253 280 301 285 267 248 245 251 246 255 265 266 285 299 301 305 298 291 297 302 308 314 320 322 322 322 318 317 317 314 318 317 320 322 322 326 320 320 320 311 307
75 103 120 30 275 169 314 283 14 302 297 283 279 234 234 241 247 260 269 266 281 287 287 285 285 291 297 307 315 319 323 324 324 322 321 323 317 318 319 318 319 320 322 323 324 323 323 316 315